Terminal Aerodrome Forecast
Issued by NWS State College, PA

Home | Current Version | Previous Version | Text Only | Print | Product List | Glossary On
Versions: 1 2 3 4 5 6 7 8 9 10 11 12 13 14 15 16 17 18 19 20 21 22 23 24
000
FTUS41 KCTP 231124
TAFMDT
TAF
KMDT 231124Z 2312/2412 31012G24KT P6SM BKN040
     FM231400 30017G30KT P6SM BKN050
     FM240300 31008KT P6SM SKC=

USA.gov is the U.S. government's official web portal to all federal, state and local government web resources and services.